Change the Weather History Date:

Wednesday, June 20, 2012

  Actual Average Record
Temperature  
Mean Temperature 79 °F -  
Max Temperature 88 °F 73 °F 88 °F (2012)
Min Temperature 70 °F 58 °F 44 °F (2003)
Cooling Degree Days 14    
Growing Degree Days 29 (Base 50)    
Moisture  
Dew Point 66 °F    
Average Humidity 60    
Maximum Humidity 87    
Minimum Humidity 47    
Precipitation  
Precipitation 0.00 in - - ()
Sea Level Pressure  
Sea Level Pressure 29.90 in    
Wind  
Wind Speed 9 mph (South)    
Max Wind Speed 17 mph    
Max Gust Speed 29 mph    
Visibility 10 miles    
Events      
Averages and records for this station are not official NWS values.
T = Trace of Precipitation, MM = Missing Value Source: NWS Daily Summary

Daily Weather History Graph

Daily Weather History Graph

Search for Another Location

Airport or City:

Trip Planner

Search our weather history database for the weather conditions in past years. The results will help you decide how hot, cold, wet, or windy it might be!

Date:

Astronomy

Jun. 20, 2012 Rise Set
Actual Time 5:53 AM EDT 9:32 PM EDT
Civil Twilight 5:15 AM EDT 10:10 PM EDT
Nautical Twilight 4:24 AM EDT 11:00 PM EDT
Astronomical Twilight 3:16 AM EDT 12:08 AM EDT
Moon 6:55 AM EDT (6/20) 10:13 PM EDT (6/20)
Length of Visible Light 16h 55m
Length of Day
15h 39m
New Moon, 1% of the Moon is Illuminated
Jun 20
New Moon
Jun 26
First Quarter
Jul 3
Full
Jul 10
Last Quarter
Jul 19
New

Hourly Weather History & Observations

Time (EDT) Temp. Heat Index Dew Point Humidity Pressure Visibility Wind Dir Wind Speed Gust Speed Precip Events Conditions
12:14 AM 70.7 °F - 66.7 °F 87% 29.93 in 10.0 mi SE 4.6 mph - N/A   Clear
12:34 AM 71.4 °F - 66.9 °F 86% 29.94 in 10.0 mi ESE 4.6 mph - N/A   Clear
12:54 AM 72.0 °F - 66.7 °F 84% 29.94 in 10.0 mi SE 3.5 mph - N/A   Clear
1:14 AM 77.2 °F - 66.4 °F 69% 29.94 in 10.0 mi South 6.9 mph - N/A   Clear
1:34 AM 77.7 °F - 66.2 °F 68% 29.94 in 10.0 mi South 8.1 mph - N/A   Clear
1:54 AM 77.5 °F - 66.2 °F 68% 29.93 in 10.0 mi South 8.1 mph - N/A   Clear
2:14 AM 77.9 °F - 65.8 °F 66% 29.92 in 10.0 mi South 9.2 mph 17.3 mph N/A   Clear
2:34 AM 77.9 °F - 65.7 °F 66% 29.92 in 10.0 mi South 8.1 mph 17.3 mph N/A   Clear
2:54 AM 77.9 °F - 65.5 °F 65% 29.92 in 10.0 mi South 9.2 mph 16.1 mph N/A   Clear
3:14 AM 77.7 °F - 65.3 °F 65% 29.92 in 10.0 mi South 11.5 mph 16.1 mph N/A   Clear
3:34 AM 77.5 °F - 65.3 °F 66% 29.92 in 10.0 mi South 8.1 mph - N/A   Clear
3:55 AM 77.2 °F - 65.3 °F 67% 29.93 in 10.0 mi South 8.1 mph - N/A   Clear
4:14 AM 77.0 °F - 65.3 °F 67% 29.93 in 10.0 mi South 8.1 mph - N/A   Clear
4:34 AM 76.5 °F - 64.9 °F 67% 29.92 in 10.0 mi South 8.1 mph - N/A   Clear
4:54 AM 76.5 °F - 64.8 °F 67% 29.92 in 10.0 mi South 9.2 mph 17.3 mph N/A   Clear
5:14 AM 76.5 °F - 64.8 °F 67% 29.92 in 10.0 mi South 9.2 mph - N/A   Clear
5:34 AM 76.3 °F - 64.8 °F 67% 29.93 in 10.0 mi South 8.1 mph - N/A   Clear
5:54 AM 76.1 °F - 64.8 °F 68% 29.93 in 10.0 mi SSW 9.2 mph 16.1 mph N/A   Scattered Clouds
6:14 AM 76.1 °F - 64.6 °F 67% 29.93 in 10.0 mi South 10.4 mph 16.1 mph N/A   Clear
6:34 AM 76.5 °F - 64.6 °F 67% 29.93 in 10.0 mi South 10.4 mph 16.1 mph N/A   Clear
6:54 AM 76.1 °F - 64.6 °F 67% 29.93 in 10.0 mi South 9.2 mph - N/A   Clear
7:14 AM 76.3 °F - 64.8 °F 67% 29.93 in 10.0 mi South 9.2 mph 16.1 mph N/A   Clear
7:34 AM 77.2 °F - 64.8 °F 65% 29.94 in 10.0 mi South 9.2 mph 16.1 mph N/A   Clear
7:54 AM 77.5 °F - 64.9 °F 65% 29.94 in 10.0 mi South 8.1 mph 16.1 mph N/A   Clear
8:14 AM 78.1 °F - 65.3 °F 65% 29.94 in 10.0 mi South 10.4 mph 17.3 mph N/A   Clear
8:34 AM 78.8 °F - 65.1 °F 63% 29.94 in 10.0 mi South 12.7 mph 18.4 mph N/A   Clear
8:54 AM 79.3 °F - 65.7 °F 63% 29.95 in 10.0 mi South 10.4 mph 20.7 mph N/A   Clear
9:35 AM 79.0 °F - 65.3 °F 63% 29.94 in 10.0 mi SSW 12.7 mph 20.7 mph N/A   Overcast
9:54 AM 78.8 °F - 65.5 °F 64% 29.95 in 10.0 mi SSW 12.7 mph 17.3 mph N/A   Overcast
10:14 AM 79.9 °F - 66.2 °F 63% 29.95 in 10.0 mi SSW 12.7 mph 19.6 mph N/A   Overcast
10:34 AM 79.5 °F - 66.4 °F 64% 29.94 in 10.0 mi SSW 9.2 mph 18.4 mph N/A   Overcast
10:54 AM 81.0 °F 83.2 °F 66.2 °F 61% 29.94 in 10.0 mi SSW 12.7 mph 19.6 mph N/A   Mostly Cloudy
11:14 AM 81.9 °F 84.4 °F 67.1 °F 61% 29.94 in 10.0 mi SSW 11.5 mph 17.3 mph N/A   Scattered Clouds
11:34 AM 82.4 °F 85.0 °F 67.1 °F 60% 29.93 in 10.0 mi South 10.4 mph 21.9 mph N/A   Scattered Clouds
11:54 AM 83.3 °F 85.9 °F 67.3 °F 58% 29.93 in 10.0 mi South 13.8 mph 24.2 mph N/A   Clear
12:14 PM 83.3 °F 86.2 °F 67.5 °F 59% 29.92 in 10.0 mi South 15.0 mph 23.0 mph N/A   Clear
12:54 PM 84.7 °F 87.9 °F 68.0 °F 57% 29.92 in 10.0 mi SSW 12.7 mph 19.6 mph N/A   Clear
1:14 PM 85.1 °F 88.2 °F 67.6 °F 56% 29.92 in 10.0 mi South 15.0 mph 23.0 mph N/A   Clear
1:34 PM 85.6 °F 88.5 °F 67.5 °F 54% 29.92 in 10.0 mi South 13.8 mph 24.2 mph N/A   Clear
1:54 PM 86.2 °F 89.1 °F 67.3 °F 53% 29.92 in 10.0 mi SSW 13.8 mph 25.3 mph N/A   Scattered Clouds
2:14 PM 86.9 °F 90.3 °F 67.6 °F 53% 29.91 in 10.0 mi SSW 12.7 mph 25.3 mph N/A   Clear
2:34 PM 87.1 °F 90.2 °F 67.5 °F 52% 29.91 in 10.0 mi SSW 12.7 mph 19.6 mph N/A   Scattered Clouds
2:54 PM 87.4 °F 90.1 °F 66.9 °F 50% 29.91 in 10.0 mi SSW 16.1 mph 20.7 mph N/A   Scattered Clouds
3:14 PM 87.4 °F 89.8 °F 66.4 °F 49% 29.90 in 10.0 mi SSW 17.3 mph 25.3 mph N/A   Scattered Clouds
3:34 PM 88.0 °F 91.0 °F 67.1 °F 50% 29.89 in 10.0 mi SSW 17.3 mph 20.7 mph N/A   Clear
3:54 PM 88.0 °F 90.7 °F 66.7 °F 49% 29.89 in 10.0 mi SSW 12.7 mph 21.9 mph N/A   Clear
4:14 PM 88.2 °F 90.6 °F 66.2 °F 48% 29.88 in 10.0 mi SSW 16.1 mph 24.2 mph N/A   Clear
4:35 PM 88.3 °F 90.9 °F 66.6 °F 48% 29.87 in 10.0 mi SSW 12.7 mph 23.0 mph N/A   Clear
4:54 PM 88.3 °F 90.5 °F 66.0 °F 47% 29.86 in 10.0 mi South 17.3 mph 28.8 mph N/A   Clear
5:14 PM 88.2 °F 90.6 °F 66.4 °F 48% 29.85 in 10.0 mi South 17.3 mph - N/A   Clear
5:35 PM 88.0 °F 90.7 °F 66.9 °F 49% 29.84 in 10.0 mi South 10.4 mph 20.7 mph N/A   Clear
5:54 PM 87.8 °F 90.4 °F 66.2 °F 49% 29.84 in 10.0 mi SSW 15.0 mph 23.0 mph N/A   Clear
6:14 PM 87.1 °F 89.2 °F 65.8 °F 49% 29.83 in 10.0 mi South 16.1 mph 25.3 mph N/A   Clear
6:34 PM 86.7 °F 89.0 °F 66.0 °F 50% 29.82 in 10.0 mi South 13.8 mph 23.0 mph N/A   Clear
6:54 PM 86.4 °F 88.7 °F 66.2 °F 51% 29.82 in 10.0 mi South 8.1 mph 19.6 mph N/A   Clear
7:14 PM 86.2 °F 88.2 °F 65.7 °F 50% 29.82 in 10.0 mi South 11.5 mph 18.4 mph N/A   Clear
7:34 PM 86.0 °F 87.6 °F 64.8 °F 49% 29.81 in 10.0 mi SSW 15.0 mph 21.9 mph N/A   Clear
7:54 PM 85.5 °F 86.8 °F 64.6 °F 49% 29.81 in 10.0 mi SSW 9.2 mph 23.0 mph N/A   Clear
8:14 PM 84.6 °F 86.3 °F 65.1 °F 52% 29.82 in 10.0 mi SSW 12.7 mph 17.3 mph N/A   Clear
8:34 PM 83.8 °F 85.6 °F 64.9 °F 53% 29.82 in 10.0 mi SSW 10.4 mph 19.6 mph N/A   Clear
8:54 PM 82.8 °F 84.5 °F 65.3 °F 55% 29.83 in 10.0 mi SSW 9.2 mph - N/A   Clear
9:15 PM 81.9 °F 83.7 °F 65.5 °F 57% 29.84 in 10.0 mi SSW 8.1 mph - N/A   Clear
9:34 PM 81.7 °F 83.6 °F 65.5 °F 58% 29.83 in 10.0 mi SSW 9.2 mph 16.1 mph N/A   Clear
9:54 PM 81.3 °F 83.3 °F 65.7 °F 59% 29.84 in 10.0 mi South 8.1 mph 18.4 mph N/A   Clear
10:14 PM 81.3 °F 83.3 °F 65.7 °F 59% 29.85 in 10.0 mi South 10.4 mph 16.1 mph N/A   Clear
10:34 PM 81.5 °F 83.6 °F 65.8 °F 59% 29.85 in 10.0 mi South 8.1 mph 17.3 mph N/A   Scattered Clouds
10:54 PM 80.8 °F 82.8 °F 65.8 °F 60% 29.84 in 10.0 mi South 11.5 mph 19.6 mph N/A   Scattered Clouds
11:14 PM 80.6 °F 82.7 °F 65.8 °F 61% 29.83 in 10.0 mi South 12.7 mph 19.6 mph N/A   Clear
11:34 PM 80.6 °F 82.5 °F 65.7 °F 60% 29.82 in 10.0 mi South 12.7 mph 21.9 mph N/A   Clear
11:54 PM 79.9 °F - 65.5 °F 61% 29.81 in 10.0 mi South 12.7 mph 23.0 mph N/A   Clear